Wind_Speed
5 4 3 3 3 3 3 3 3 3 2 2 3 3 3 2 2 3 2 3 3 2 2 2 2 2 1 1 2 2 2 3 3 3 3 3 2 2 2 3 3 3 3 3 4 4 4 4 4
4 4 4 4 4 4 3 2 3 4 4 3 4 4 3 2 2 2 3 3 3 3 2 2 2 2 2 2 3 3 3 3 3 3 3 4 4 3 3 3 3 3 3 4 4 4 5 5 5
5 5 4 5 5 5 4 4 3 4 5 4 4 4 4 3 3 3 4 4 3 3 3 3 3 3 3 4 4 4 4 4 4 3 4 4 5 4 4 4 4 4 4 5 5 5 5 6 6
5 5 6 6 5 5 4 4 3 3 5 5 5 4 4 4 4 5 5 5 4 4 4 4 5 5 4 5 5 5 5 5 4 4 4 5 5 5 5 6 5 5 5 5 5 5 5 5 6
6 6 7 6 5 5 4 4 3 4 4 5 5 5 4 4 5 5 5 5 5 5 5 5 5 5 5 5 5 5 6 6 6 5 5 5 6 6 6 6 6 6 6 6 6 6 6 6 6
6 7 7 6 6 5 4 4 4 4 4 5 5 5 5 5 5 5 6 6 6 7 6 6 5 6 6 6 6 7 7 6 6 6 5 6 6 6 6 6 6 6 6 6 6 7 7 7 7
7 7 7 6 6 5 5 4 4 5 5 5 6 6 6 6 6 6 6 6 7 7 6 7 6 7 7 7 7 8 8 7 7 6 6 7 7 6 6 7 6 5 6 6 7 7 7 7 8
7 7 7 6 6 5 5 5 5 5 5 5 6 7 7 7 7 6 6 6 7 7 7 7 7 7 7 8 8 8 8 7 6 6 6 7 7 7 6 6 6 6 6 6 6 7 7 8 8
8 7 7 7 6 6 6 6 5 5 4 5 6 7 7 7 7 7 7 7 7 7 7 7 7 7 7 7 7 7 7 6 6 6 6 6 7 7 6 6 6 6 6 7 7 7 7 8 8
7 7 7 7 6 6 6 5 5 5 5 5 6 7 7 8 8 8 7 7 7 7 7 7 7 8 8 7 7 7 7 7 7 7 6 6 7 7 6 7 7 7 8 7 7 7 8 8 8
7 7 7 6 6 6 5 4 4 4 5 5 5 6 7 8 8 7 6 6 6 7 8 7 7 7 7 8 8 8 8 8 8 7 7 7 6 6 7 7 8 8 8 8 8 8 8 8 8
6 6 6 6 6 5 5 5 4 5 5 5 5 5 6 7 7 7 6 6 7 7 7 7 7 7 8 8 8 8 8 8 8 8 7 6 6 7 7 8 8 8 8 8 8 8 8 8 8
6 6 5 5 5 5 4 3 3 4 5 5 5 6 6 5 6 6 7 6 7 7 7 7 7 7 7 7 8 8 8 7 8 8 8 8 8 8 8 9 8 8 8 8 9 8 8 8 8
5 4 4 5 4 5 4 4 3 3 4 4 4 4 4 4 5 6 5 6 6 6 7 7 7 7 7 7 7 7 8 7 8 8 9 9 9 9 9 9 9 9 9 9 9 9 8 8 8
4 4 4 4 4 4 4 4 4 3 3 3 3 4 3 4 5 5 4 4 5 5 5 6 6 6 6 7 7 7 8 8 8 8 9 9 9 9 9 9 9 9 9 9 9 9 9 8 8
5 4 4 4 4 3 4 3 3 2 2 2 3 3 4 4 4 4 4 4 5 5 5 6 6 6 6 6 7 7 8 8 9 9 8 8 8 8 9 9 10 9 9 10 9 9 9 9 9
4 3 4 4 4 4 4 3 2 2 1 2 2 2 3 3 3 3 3 4 5 6 6 6 6 6 6 6 7 8 8 8 8 8 7 8 8 8 8 9 9 10 10 10 9 9 9 9 9
2 2 2 3 3 3 3 2 2 2 2 2 1 2 2 3 3 3 3 4 5 5 5 5 5 6 6 6 7 7 7 7 7 7 7 8 8 9 8 8 9 9 10 10 10 10 10 10 10
1 1 1 2 2 3 3 3 3 3 2 2 2 2 3 3 3 4 4 4 5 4 4 5 5 5 6 6 6 6 7 6 6 7 7 8 8 8 9 9 9 9 9 10 10 10 10 10 10
2 2 2 3 3 4 4 3 3 3 2 3 3 3 3 4 4 4 4 4 4 5 5 5 6 6 6 6 6 6 7 7 7 7 8 8 8 8 8 9 9 10 10 10 10 10 10 10 10
2 3 2 3 3 4 3 2 2 2 3 3 3 4 4 4 4 4 4 4 5 6 6 6 6 7 7 7 7 7 7 8 7 8 8 8 8 9 9 9 10 10 10 10 10 10 10 10 10
3 3 3 4 4 4 4 3 3 2 3 3 3 4 4 5 5 5 5 5 6 6 6 6 6 7 7 7 7 7 7 7 7 8 8 9 9 9 9 9 9 9 9 10 10 11 11 11 11
4 4 4 5 5 4 4 4 3 4 4 3 3 4 4 5 5 6 7 7 7 7 7 7 7 7 7 7 7 7 7 7 7 8 8 9 9 9 9 9 9 9 9 10 10 11 11 11 12
5 5 5 5 5 6 6 5 4 4 5 4 4 4 5 5 6 7 8 8 7 7 7 7 7 7 8 8 8 8 8 8 8 9 9 9 9 10 10 10 10 10 10 10 11 11 11 11 12
5 6 6 6 6 7 7 6 5 6 5 5 5 6 6 7 7 7 8 9 8 8 8 8 8 8 8 9 9 9 9 9 10 10 10 10 10 11 11 11 11 11 11 12 12 12 12 13 13
6 7 7 7 7 7 8 8 7 7 6 6 7 7 7 8 8 8 8 8 9 9 9 9 9 9 9 9 9 9 9 10 10 11 11 11 11 12 12 12 12 13 13 13 13 13 14 14 14
8 8 8 8 8 8 8 8 8 7 7 7 8 8 8 8 9 9 8 8 9 9 9 9 9 9 9 9 9 9 10 11 11 11 12 12 12 12 13 13 13 13 13 13 13 14 13 14 15
8 9 8 9 9 9 9 8 8 8 8 8 8 9 9 9 10 9 9 9 9 9 10 9 9 9 9 9 9 10 10 11 11 12 12 13 13 13 13 14 13 13 13 14 14 14 14 15 16
9 9 10 10 10 11 11 10 10 9 8 8 9 9 10 11 11 11 11 10 9 9 9 10 10 10 10 10 10 11 11 12 12 12 13 13 13 14 14 15 15 14 15 15 16 16 16 16 16
10 11 11 11 11 12 12 12 11 11 10 10 10 10 10 11 11 11 11 11 10 10 10 11 11 11 11 12 12 12 12 12 13 13 13 14 14 14 15 15 16 16 16 17 17 17 17 17 17
Wind_Direction
213 211 217 221 231 239 211 205 208 218 222 215 205 196 188 198 217 222 220 222 206 205 222 250 264 254 264 278 288 277 265 259 269 271 274 274 272 285 293 287 281 271 254 248 244 239 235 237 241
219 222 233 245 249 253 238 225 219 227 231 219 208 204 207 218 225 240 236 241 231 230 231 246 265 255 256 274 283 279 268 265 270 267 270 269 263 270 284 289 287 279 263 262 254 248 241 245 247
233 239 245 253 247 254 257 249 244 236 236 229 218 214 223 233 237 244 246 249 248 244 244 255 264 266 265 270 278 282 279 272 267 257 273 275 268 266 277 282 290 283 275 269 263 252 247 248 250
233 240 249 254 248 249 257 261 264 248 240 232 224 228 232 232 241 250 252 256 260 258 257 262 267 266 266 270 278 282 283 281 275 270 273 279 276 265 267 274 281 279 279 274 265 259 250 254 252
242 242 251 253 247 247 250 257 261 255 244 231 232 240 242 244 253 263 264 262 265 264 262 261 264 267 265 270 279 281 277 273 272 270 272 278 278 266 267 272 276 274 270 266 262 260 257 258 258
242 246 253 259 255 254 245 249 252 256 250 242 243 246 246 252 261 265 266 268 266 265 264 263 266 268 270 275 275 278 275 270 271 273 280 280 276 266 268 269 276 278 271 263 262 259 261 262 259
241 247 251 262 259 258 250 243 249 249 252 250 253 253 248 247 258 264 268 270 267 263 267 266 269 270 272 274 274 275 273 271 268 274 275 276 272 270 273 271 271 275 277 273 268 263 263 262 262
243 248 248 257 264 262 257 246 245 252 254 255 252 251 251 252 258 262 266 271 272 268 266 266 267 274 275 272 272 278 275 270 270 276 275 273 268 270 269 266 267 269 271 274 271 264 262 264 265
245 247 249 256 265 268 266 263 254 257 249 250 252 253 252 254 259 260 264 267 268 268 264 265 264 271 273 274 276 276 280 274 275 276 276 275 272 269 264 262 263 265 270 272 269 264 265 266 268
244 246 253 258 259 267 275 272 263 257 251 254 251 252 257 263 262 260 261 264 265 267 265 265 267 272 276 278 280 279 284 280 278 277 277 278 276 272 261 259 263 268 271 272 272 270 269 267 267
243 246 257 259 258 262 271 277 268 261 261 263 265 262 262 265 266 261 259 263 267 267 265 265 265 271 278 280 281 279 277 277 273 272 274 275 274 272 266 260 264 271 273 274 274 272 271 269 266
242 245 251 257 258 262 269 266 261 264 268 268 271 271 267 271 262 257 256 265 266 266 262 264 268 270 275 279 282 278 276 272 268 268 273 272 271 272 270 266 267 270 275 276 274 274 273 271 274
235 239 244 243 251 258 267 263 269 274 273 275 273 275 276 270 267 263 260 263 263 258 263 260 264 268 275 279 282 279 279 271 267 269 269 266 266 267 270 267 269 270 274 277 274 272 272 271 272
232 236 237 241 244 247 248 255 281 287 283 278 281 277 276 272 266 265 266 267 267 264 261 261 266 269 276 280 281 283 283 280 271 270 269 264 263 267 268 267 269 270 273 273 273 272 269 266 269
231 236 237 232 241 246 243 251 269 290 291 289 281 274 278 276 267 262 270 279 279 277 270 269 272 270 270 272 276 280 285 281 277 272 271 268 268 268 270 268 269 270 269 270 270 271 269 269 269
236 237 244 245 246 246 248 252 262 273 292 299 290 283 277 270 267 267 272 285 284 284 282 277 278 274 272 272 275 278 283 283 280 277 273 270 267 267 269 272 271 268 269 272 273 272 271 272 272
242 237 235 237 241 236 243 252 270 286 286 305 296 291 280 278 281 284 291 293 293 294 291 280 280 282 275 275 279 281 283 285 280 280 276 275 271 274 275 277 275 271 273 274 273 272 273 275 275
244 226 209 216 232 244 242 254 275 290 282 285 294 307 294 284 290 284 294 303 307 308 306 293 289 283 281 284 286 286 286 283 284 284 278 277 276 276 276 277 277 277 277 275 273 272 272 274 275
258 243 233 238 239 247 255 268 268 269 271 272 287 317 310 302 292 291 297 306 311 315 318 310 303 302 296 292 291 289 287 285 287 289 280 279 281 278 275 273 275 277 277 278 275 273 273 275 275
245 258 260 258 255 257 265 272 263 257 267 285 298 301 295 299 294 293 302 307 308 312 308 306 303 299 297 298 294 291 287 280 278 279 279 282 283 281 281 279 278 277 277 279 276 272 272 273 273
259 262 273 269 266 263 268 274 254 245 261 278 291 290 288 292 291 286 292 294 299 304 303 301 300 299 299 299 298 290 286 282 276 279 280 281 286 281 279 278 277 278 279 280 277 273 274 274 276
262 259 259 262 268 268 276 269 262 261 261 259 274 287 289 287 287 280 284 289 293 296 299 298 296 297 298 298 299 293 289 289 283 283 283 283 285 284 282 282 279 277 278 278 275 273 273 274 275
270 264 266 264 265 263 271 265 263 270 275 275 276 286 285 284 288 286 288 289 292 292 293 293 291 292 292 290 291 293 289 287 286 284 284 285 286 286 284 284 285 283 281 279 275 273 272 273 275
282 273 278 280 266 266 264 259 262 278 284 285 280 283 289 287 289 286 289 289 289 289 290 290 291 289 287 288 289 290 289 287 286 286 286 283 283 284 284 285 287 289 286 285 282 277 276 276 277
273 275 274 269 261 265 267 267 275 277 286 292 289 290 295 292 289 292 289 288 287 287 286 288 291 289 286 289 291 291 289 289 288 286 285 284 282 283 285 287 286 286 285 282 284 281 277 277 278
272 275 270 265 261 261 269 276 283 279 288 292 288 287 293 294 291 293 294 290 287 284 282 281 284 287 285 287 291 293 290 291 290 286 284 284 283 285 286 286 287 287 286 286 283 284 280 277 278
279 279 274 268 271 273 270 277 281 283 290 292 286 284 290 295 294 291 290 290 291 288 282 279 279 281 282 282 287 292 293 292 290 287 285 286 286 286 286 286 286 286 285 284 283 282 283 281 279
279 276 274 267 271 276 274 275 278 285 290 287 285 287 288 291 291 290 290 291 290 289 286 284 284 282 281 282 284 288 290 290 289 287 286 284 283 285 285 285 286 286 285 285 286 284 283 284 283
274 272 271 268 271 271 273 276 282 287 289 290 288 287 285 287 287 287 288 289 288 285 282 283 285 285 285 284 285 288 290 290 289 288 287 286 285 285 285 287 287 286 287 287 287 285 284 284 285
270 267 266 265 271 273 276 279 281 285 287 288 291 290 287 287 287 288 287 286 285 283 280 281 284 284 287 288 289 289 290 291 290 289 289 287 285 284 285 289 288 287 287 288 288 287 286 284 285
Height
5887 5887 5888 5889 5889 5888 5888 5888 5888 5887 5888 5888 5888 5888 5888 5889 5890 5892 5890 5888 5888 5888 5888 5887 5887 5887 5887 5887 5887 5886 5886 5886 5886 5885 5885 5885 5884 5884 5884 5883 5882 5882 5882 5881 5881 5881 5881 5881 5881
5886 5887 5888 5888 5888 5888 5888 5887 5887 5887 5887 5887 5887 5887 5888 5888 5888 5889 5888 5887 5887 5887 5887 5887 5887 5887 5887 5887 5886 5886 5886 5885 5885 5885 5885 5884 5884 5883 5883 5883 5882 5882 5881 5881 5880 5880 5881 5881 5881
5885 5886 5888 5887 5887 5887 5887 5886 5886 5886 5886 5886 5887 5887 5887 5887 5887 5887 5887 5887 5887 5887 5886 5886 5886 5886 5886 5886 5886 5885 5885 5885 5885 5884 5884 5884 5883 5883 5882 5882 5881 5881 5880 5880 5880 5880 5880 5880 5880
5885 5886 5886 5886 5885 5885 5885 5885 5885 5885 5885 5885 5886 5886 5886 5886 5886 5886 5886 5886 5885 5886 5886 5886 5885 5885 5885 5885 5885 5885 5884 5884 5884 5883 5883 5883 5882 5882 5881 5881 5880 5880 5879 5879 5879 5879 5879 5879 5879
5884 5885 5885 5884 5884 5884 5884 5884 5884 5884 5883 5884 5885 5885 5885 5885 5885 5885 5885 5885 5884 5884 5884 5884 5884 5884 5884 5884 5884 5884 5883 5883 5882 5882 5882 5881 5881 5880 5880 5880 5879 5879 5878 5878 5878 5878 5878 5878 5878
5883 5883 5884 5883 5883 5883 5883 5882 5882 5882 5882 5883 5883 5884 5884 5884 5884 5884 5884 5884 5883 5883 5883 5883 5883 5883 5883 5883 5883 5882 5882 5882 5881 5881 5881 5880 5880 5879 5879 5879 5878 5878 5877 5877 5877 5877 5877 5876 5876
5882 5882 5882 5882 5881 5881 5882 5881 5881 5881 5881 5882 5882 5882 5882 5882 5882 5882 5882 5882 5882 5882 5882 5882 5882 5882 5882 5881 5881 5881 5880 5880 5880 5880 5879 5879 5878 5878 5877 5877 5877 5877 5876 5876 5876 5876 5875 5875 5875
5880 5881 5880 5880 5880 5880 5880 5880 5880 5880 5880 5880 5880 5881 5881 5881 5881 5881 5881 5881 5881 5880 5880 5880 5880 5880 5880 5880 5880 5879 5879 5879 5878 5878 5877 5877 5877 5876 5876 5876 5876 5875 5875 5875 5874 5874 5874 5874 5874
5879 5880 5879 5879 5879 5879 5879 5878 5878 5878 5879 5879 5879 5879 5879 5880 5880 5879 5880 5880 5879 5879 5879 5879 5879 5879 5878 5878 5878 5878 5877 5877 5877 5876 5876 5876 5875 5875 5874 5874 5874 5874 5874 5873 5873 5873 5872 5872 5872
5877 5878 5878 5877 5877 5877 5877 5877 5877 5877 5877 5877 5877 5877 5878 5878 5878 5877 5878 5878 5878 5877 5877 5877 5877 5877 5877 5876 5876 5876 5875 5875 5875 5875 5875 5874 5874 5873 5873 5873 5873 5872 5872 5872 5872 5871 5871 5870 5870
5875 5876 5876 5875 5876 5875 5875 5875 5875 5875 5876 5876 5876 5876 5876 5876 5876 5876 5876 5876 5876 5876 5876 5876 5875 5875 5875 5875 5874 5874 5874 5874 5873 5873 5873 5873 5872 5872 5871 5871 5871 5871 5870 5870 5870 5870 5869 5869 5869
5874 5874 5874 5874 5874 5874 5874 5874 5874 5874 5875 5874 5874 5874 5874 5874 5874 5874 5874 5874 5875 5875 5874 5874 5874 5873 5873 5873 5873 5872 5872 5872 5871 5871 5871 5871 5871 5870 5870 5870 5869 5869 5869 5869 5868 5868 5868 5867 5867
5872 5872 5873 5873 5872 5872 5873 5873 5873 5873 5873 5872 5873 5872 5872 5872 5872 5873 5873 5873 5873 5873 5873 5873 5872 5872 5871 5871 5871 5870 5870 5870 5870 5869 5869 5869 5869 5869 5868 5868 5868 5867 5867 5867 5867 5866 5866 5865 5865
5871 5871 5871 5871 5871 5871 5872 5872 5872 5871 5871 5871 5871 5871 5871 5871 5871 5871 5871 5871 5871 5871 5871 5870 5870 5870 5870 5869 5869 5869 5868 5868 5868 5868 5867 5867 5867 5867 5867 5866 5866 5865 5865 5865 5865 5864 5864 5864 5863
5869 5870 5870 5870 5870 5870 5871 5871 5871 5870 5870 5870 5870 5870 5869 5869 5869 5869 5869 5869 5869 5869 5869 5868 5868 5868 5868 5867 5867 5867 5866 5866 5866 5865 5865 5865 5865 5865 5864 5864 5864 5863 5863 5863 5862 5862 5862 5862 5861
5868 5869 5869 5869 5869 5869 5871 5870 5870 5869 5869 5868 5868 5868 5868 5868 5868 5868 5868 5868 5868 5867 5867 5867 5866 5866 5866 5865 5865 5865 5864 5864 5863 5863 5863 5863 5863 5862 5862 5861 5861 5861 5861 5860 5860 5860 5860 5859 5859
5868 5868 5868 5868 5867 5868 5869 5869 5869 5868 5867 5867 5867 5867 5867 5867 5867 5867 5867 5867 5866 5866 5865 5865 5865 5864 5864 5864 5863 5863 5862 5862 5861 5861 5860 5860 5860 5860 5859 5859 5859 5859 5858 5858 5858 5858 5857 5857 5857
5867 5867 5867 5867 5866 5867 5867 5867 5867 5867 5866 5866 5866 5866 5866 5866 5866 5866 5865 5865 5865 5864 5864 5863 5863 5862 5862 5862 5861 5861 5860 5860 5859 5859 5858 5858 5858 5858 5857 5857 5857 5856 5856 5856 5855 5855 5855 5855 5854
5866 5866 5866 5866 5865 5866 5866 5866 5866 5865 5865 5865 5865 5865 5865 5864 5864 5864 5864 5864 5863 5863 5862 5862 5861 5861 5861 5860 5859 5859 5858 5858 5857 5857 5857 5856 5856 5855 5855 5855 5854 5854 5854 5853 5853 5852 5852 5852 5852
5865 5865 5865 5865 5864 5864 5864 5865 5864 5864 5864 5864 5864 5864 5864 5863 5863 5863 5863 5862 5862 5861 5861 5860 5860 5859 5859 5858 5858 5857 5857 5856 5856 5855 5854 5854 5854 5853 5853 5852 5852 5852 5851 5851 5850 5850 5850 5849 5849
5864 5864 5864 5863 5863 5863 5863 5864 5863 5863 5863 5863 5863 5862 5862 5862 5862 5861 5861 5861 5861 5860 5859 5859 5858 5858 5857 5856 5856 5855 5855 5854 5854 5853 5852 5852 5851 5851 5850 5850 5850 5849 5848 5848 5847 5847 5847 5847 5847
5863 5863 5862 5862 5862 5862 5862 5862 5862 5862 5862 5862 5861 5861 5861 5860 5860 5860 5860 5860 5859 5859 5858 5857 5857 5856 5855 5855 5854 5853 5853 5852 5851 5851 5850 5850 5849 5849 5848 5848 5847 5847 5846 5845 5845 5845 5844 5844 5844
5862 5861 5861 5861 5860 5861 5861 5861 5861 5860 5860 5860 5860 5860 5859 5859 5858 5858 5858 5858 5857 5857 5856 5855 5855 5854 5854 5853 5852 5851 5850 5850 5849 5849 5848 5848 5847 5847 5846 5846 5845 5844 5843 5843 5842 5842 5842 5841 5841
5860 5860 5859 5859 5859 5859 5859 5859 5859 5859 5858 5858 5858 5857 5857 5857 5856 5856 5855 5855 5855 5854 5854 5853 5853 5852 5852 5851 5850 5849 5848 5848 5847 5846 5846 5845 5845 5844 5844 5843 5842 5841 5841 5840 5839 5839 5839 5838 5837
5859 5859 5859 5858 5857 5858 5857 5857 5858 5857 5856 5856 5855 5855 5855 5854 5854 5853 5853 5853 5852 5852 5851 5851 5851 5850 5849 5848 5848 5847 5846 5845 5845 5844 5843 5843 5842 5842 5841 5840 5840 5839 5838 5837 5836 5836 5835 5835 5834
5857 5857 5858 5857 5856 5856 5855 5855 5856 5854 5854 5853 5853 5853 5852 5852 5852 5851 5850 5850 5850 5849 5849 5848 5848 5847 5846 5846 5845 5844 5843 5843 5842 5841 5840 5840 5839 5839 5838 5837 5837 5836 5835 5834 5833 5832 5832 5831 5830
5855 5854 5855 5854 5854 5853 5853 5853 5853 5852 5852 5851 5851 5850 5850 5849 5849 5848 5848 5847 5847 5846 5846 5845 5845 5844 5844 5843 5842 5841 5841 5840 5839 5838 5837 5837 5836 5835 5834 5834 5833 5832 5831 5830 5829 5828 5828 5827 5826
5853 5852 5852 5852 5851 5851 5851 5851 5851 5850 5850 5849 5848 5848 5847 5847 5846 5846 5845 5845 5844 5844 5843 5842 5842 5841 5841 5840 5839 5838 5838 5837 5836 5835 5834 5833 5832 5832 5831 5830 5829 5828 5828 5827 5826 5825 5824 5823 5822
5850 5850 5849 5849 5849 5849 5848 5851 5849 5848 5847 5847 5846 5845 5844 5844 5843 5843 5842 5842 5841 5841 5840 5839 5839 5838 5838 5837 5836 5835 5834 5833 5832 5831 5830 5830 5829 5828 5827 5826 5825 5824 5823 5823 5821 5820 5819 5818 5817
5847 5846 5846 5847 5846 5845 5845 5849 5845 5845 5844 5843 5842 5842 5841 5841 5840 5840 5839 5839 5838 5838 5837 5837 5836 5835 5834 5833 5833 5832 5831 5830 5829 5828 5827 5826 5825 5824 5823 5822 5821 5820 5819 5818 5817 5815 5814 5813 5812